Flag for Belgium Weather past 2 weeks in Antwerp, Belgium

Now
41 °F

Passing clouds.


Feels Like: 36 °F
Forecast: 40 / 48 °F
Wind: 8 mph from Southwest

Location: Antwerp / Deurne

Current Time: Jan 25, 2015 at 10:17:22 PM

Latest Report: Jan 25, 2015 at 9:50 PM


Visibility: N/A

Pressure: 30.36 "Hg

Humidity: 81%

Dew point: 36 °F

Location of AntwerpLocation

Historic Weather in Antwerp — Graph

°F

Antwerp temperature yesterday

Maximum temperature yesterday: 45 °F (at 12:50 PM)
Minimum temperature yesterday: 30 °F (at 12:20 AM)
Average temperature yesterday: 37 °F

Past Weeks' High & Low Weather Summary

 TemperatureHumidityPressure
High52 °F (Jan 12, 10:50 PM)93% (Jan 18, 11:20 PM)30.45 "Hg (Jan 18, 11:20 PM)
Low27 °F (Jan 22, 7:50 AM)57% (Jan 10, 8:20 PM)29.36 "Hg (Jan 15, 1:20 PM)
Average39 °F80%29.95 "Hg
* Reported Jan 10 8:20 PM — Jan 25 8:50 PM, Antwerp, Weather by CustomWeather, © 2014

Note: Actual official high and low records may vary slightly from our data, if they occured in-between our weather recording intervals... More about our weather records

Advertising

Antwerp weather history for previous 24 hours

 ConditionsComfort  
Time TempWeatherWind HumidityBarometerVisibility
8:50 PM
Jan 25
41 °FLight rain. Overcast.7 mph81%30.36 "Hg6 mi
8:20 PM41 °FLight rain. Partly cloudy.7 mph81%30.36 "HgN/A
7:50 PM41 °FLight rain. Partly cloudy.8 mph81%30.36 "HgN/A
7:20 PM41 °FLight rain. Passing clouds.7 mph87%30.36 "Hg5 mi
6:50 PM41 °FLight rain. Passing clouds.8 mph81%30.39 "Hg5 mi
6:20 PM41 °FPassing clouds.8 mph81%30.39 "HgN/A
5:50 PM41 °FPassing clouds.7 mph81%30.39 "HgN/A
5:20 PM41 °FPassing clouds.7 mph81%30.39 "HgN/A
4:50 PM43 °FSunny.8 mph81%30.39 "Hg10 mi
4:20 PM43 °FSunny.7 mph81%30.39 "Hg10 mi
3:50 PM43 °FSunny.8 mph81%30.39 "Hg10 mi
3:20 PM43 °FSunny.10 mph81%30.39 "Hg10 mi
2:50 PM43 °FClear.9 mph81%30.39 "Hg6 mi
2:20 PM41 °FClear.9 mph87%30.39 "Hg6 mi
1:50 PM41 °FClear.8 mph81%30.39 "Hg6 mi
1:20 PM41 °FPassing clouds.8 mph81%30.42 "Hg6 mi
12:50 PM39 °FPassing clouds.8 mph87%30.42 "Hg6 mi
12:20 PM39 °FPassing clouds.6 mph87%30.42 "Hg5 mi
11:50 AM39 °FPassing clouds.6 mph87%30.42 "Hg5 mi
11:20 AM39 °FPassing clouds.5 mph87%30.45 "Hg5 mi
10:50 AM39 °FPassing clouds.7 mph87%30.45 "Hg5 mi
10:20 AM37 °FClear.6 mph87%30.45 "Hg5 mi
9:50 AM37 °FClear.6 mph87%30.45 "Hg5 mi
9:20 AM36 °FClear.6 mph93%30.45 "Hg5 mi
8:50 AM36 °FClear.5 mph87%30.42 "Hg5 mi
8:20 AM36 °FClear.3 mph87%30.42 "Hg6 mi
7:50 AM36 °FClear.3 mph87%30.42 "Hg6 mi
7:20 AM36 °FClear.3 mph87%30.42 "Hg6 mi
6:50 AM36 °FClear.5 mph87%30.42 "Hg10 mi
6:20 AM36 °FChilly.2 mph87%30.42 "Hg6 mi
5:50 AM32 °FChilly.3 mph93%30.42 "Hg6 mi
5:20 AM36 °FClear.1 mph87%30.42 "Hg10 mi
4:50 AM36 °FClear.2 mph87%30.39 "Hg10 mi
4:20 AM36 °FClear.5 mph87%30.39 "Hg10 mi
3:50 AM36 °FClear.5 mph87%30.39 "Hg10 mi
3:20 AM36 °FClear.6 mph87%30.39 "Hg10 mi
2:50 AM36 °FPassing clouds.6 mph87%30.39 "HgN/A
2:20 AM36 °FClear.6 mph87%30.39 "Hg10 mi
1:50 AM36 °FClear.5 mph87%30.39 "Hg10 mi
1:20 AM36 °FClear.5 mph87%30.39 "Hg10 mi
12:50 AM36 °FPassing clouds.6 mph87%30.39 "HgN/A
12:20 AM37 °FPartly cloudy.3 mph81%30.39 "HgN/A
11:50 PM
Jan 24
36 °FPassing clouds.6 mph87%30.39 "HgN/A
11:20 PM36 °FClear.6 mph87%30.36 "Hg10 mi
10:50 PM37 °FClear.6 mph81%30.36 "Hg10 mi
10:20 PM37 °FPassing clouds.7 mph81%30.36 "HgN/A
Weather by CustomWeather, © 2014

See weather overviewHow to use our weather pages